Location: Bégole
(43.1574°N, 0.3291°E)
Time: 02:29:41
(UTC+00:00)

deb Delta 89 - Pass Details

Date: 27 February 2024
Orbit: 714 x 2021 km, 97.5° (Epoch: 13 April)

Event Time Altitude Azimuth Distance (km) Brightness Sun altitude
Rises 02:27:20 0° 11° (N) 5,478 ? -44.5°
Reaches altitude 10° 02:30:39 10° 13° (NNE) 4,483 ? -44.0°
Enters shadow 02:41:11 77° 38° (NE) 1,959 ? -42.4°
